TimePST,TemperatureF,Dew PointF,Humidity,Sea Level PressureIn,VisibilityMPH,Wind Direction,Wind SpeedMPH,Gust SpeedMPH,PrecipitationIn,Events,Conditions,WindDirDegrees,DateUTC
12:53 AM,53.1,28.0,38,29.90,10.0,NNW,15.0,23.0,N/A,,Clear,340,2013-11-04 08:53:00
1:53 AM,51.1,28.9,43,29.90,10.0,NNW,11.5,-,N/A,,Clear,330,2013-11-04 09:53:00
2:53 AM,51.1,28.9,43,29.90,10.0,NNW,13.8,-,N/A,,Clear,330,2013-11-04 10:53:00
3:53 AM,50.0,28.9,44,29.90,10.0,NNW,11.5,19.6,N/A,,Clear,340,2013-11-04 11:53:00
4:53 AM,50.0,28.9,44,29.91,10.0,NNW,10.4,-,N/A,,Clear,340,2013-11-04 12:53:00
5:53 AM,50.0,28.9,44,29.94,10.0,NNW,10.4,-,N/A,,Clear,340,2013-11-04 13:53:00
6:53 AM,50.0,28.9,44,29.96,10.0,NNW,15.0,-,N/A,,Clear,340,2013-11-04 14:53:00
7:53 AM,51.1,28.9,43,29.97,10.0,North,13.8,-,N/A,,Clear,360,2013-11-04 15:53:00
8:53 AM,55.9,28.9,36,29.99,10.0,NNW,16.1,-,N/A,,Clear,340,2013-11-04 16:53:00
9:53 AM,61.0,27.0,27,29.99,10.0,NNW,15.0,28.8,N/A,,Clear,340,2013-11-04 17:53:00
10:53 AM,64.0,27.0,25,29.98,10.0,NNW,24.2,31.1,N/A,,Clear,340,2013-11-04 18:53:00
11:53 AM,66.9,26.1,21,29.97,10.0,North,20.7,27.6,N/A,,Clear,350,2013-11-04 19:53:00
12:53 PM,68.0,25.0,20,29.95,10.0,NNW,20.7,27.6,N/A,,Clear,340,2013-11-04 20:53:00
1:53 PM,70.0,25.0,18,29.95,10.0,NNW,16.1,31.1,N/A,,Clear,330,2013-11-04 21:53:00
2:53 PM,69.1,23.0,18,29.94,10.0,NNW,16.1,29.9,N/A,,Clear,340,2013-11-04 22:53:00
3:53 PM,69.1,24.1,18,29.95,10.0,NW,16.1,26.5,N/A,,Clear,320,2013-11-04 23:53:00
4:53 PM,64.9,26.1,23,29.96,10.0,NNW,18.4,24.2,N/A,,Clear,340,2013-11-05 00:53:00
5:53 PM,64.9,28.0,25,29.97,10.0,NNW,16.1,28.8,N/A,,Clear,340,2013-11-05 01:53:00
6:53 PM,63.0,28.0,27,29.98,10.0,NNW,16.1,24.2,N/A,,Clear,340,2013-11-05 02:53:00
7:53 PM,59.0,30.0,33,30.01,10.0,NW,11.5,-,N/A,,Clear,310,2013-11-05 03:53:00
8:53 PM,57.9,30.0,35,30.03,10.0,NNW,13.8,-,N/A,,Clear,330,2013-11-05 04:53:00
9:53 PM,57.0,28.9,34,30.04,10.0,NNW,9.2,-,N/A,,Clear,330,2013-11-05 05:53:00
10:53 PM,57.0,28.9,34,30.03,10.0,NNW,16.1,-,N/A,,Clear,340,2013-11-05 06:53:00
11:53 PM,55.9,28.0,34,30.06,10.0,North,15.0,-,N/A,,Clear,350,2013-11-05 07:53:00